カタログに戻る

STARLINK-36964

運用中通信VLEO
NORAD 68184·PAYLOAD·🇺🇸 United States

打ち上げ Mar 14, 2026 から Vandenberg Space Force Base

Loading…

次のパス (今後24時間)

TLE

最新Source: CelesTrak SupGP

元期: Sep 14, 2026, 23:30 UTC

1 68184C 26050T   26257.97965278  .00037211  00000+0  10995-2 0  2571
2 68184  53.1564 103.6214 0001285  83.5365 117.0055 15.34368128    17

AllMySatでSTARLINK-36964をリアルタイム追跡

Download on the App Store